Zurück zum Katalog

OPS 4682 DEB

LostPO
NORAD 38371·DEBRIS·🇺🇸 United States

Gestartet Apr 3, 1965 von Vandenberg Space Force Base

Loading…

Nächste Überflüge (nächste 24 Stunden)

TLE

VeraltetSource: Space-Track

Epoche: Jan 31, 2016, 06:56 UTC

1 38371U 65027BY  16031.28914343 +.00001315 +00000-0 +40727-2 0  9999
2 38371 090.3013 276.6805 0030766 021.0140 340.9188 13.04410835613095

Verfolge OPS 4682 DEB in Echtzeit mit AllMySat

Download on the App Store